CDT,Max TemperatureF,Mean TemperatureF,Min TemperatureF,Max Dew PointF,MeanDew PointF,Min DewpointF,Max Humidity, Mean Humidity, Min Humidity, Max Sea Level PressureIn, Mean Sea Level PressureIn, Min Sea Level PressureIn, Max VisibilityMiles, Mean VisibilityMiles, Min VisibilityMiles, Max Wind SpeedMPH, Mean Wind SpeedMPH, Max Gust SpeedMPH,PrecipitationIn, CloudCover, Events, WindDirDegrees
2012-6-1,86,78,69,72,66,56,100,70,40,29.93,29.87,29.82,10,9,0,18,9,28,0.00,3,Fog-Rain,301
2012-6-2,88,77,65,67,60,51,87,57,26,30.03,29.97,29.93,10,10,10,12,6,15,0.00,0,,62
2012-6-3,90,80,70,72,69,64,93,75,56,30.04,29.97,29.92,10,10,9,17,7,21,0.00,1,,210
2012-6-4,92,83,73,74,72,70,88,70,52,29.96,29.90,29.80,10,10,9,14,7,18,0.00,2,,261
2012-6-5,93,84,74,75,74,69,94,72,49,29.85,29.77,29.69,10,10,10,20,8,24,T,1,,263
2012-6-6,94,84,74,75,73,67,91,70,49,29.86,29.79,29.75,10,10,8,21,6,25,T,2,Rain,257
2012-6-7,88,81,74,76,72,69,94,80,65,29.89,29.86,29.81,10,10,6,22,4,25,0.14,1,Rain,56
2012-6-8,86,80,74,74,72,70,88,77,65,29.94,29.87,29.83,10,8,1,24,7,32,0.01,4,Rain,85
2012-6-9,85,79,73,73,72,70,94,82,69,29.87,29.83,29.80,10,8,1,18,7,22,0.19,5,Rain,121
2012-6-10,81,77,73,76,73,71,94,90,85,29.96,29.89,29.78,10,6,0,23,6,30,1.37,6,Fog-Rain,208
2012-6-11,90,84,78,77,75,73,97,83,68,30.10,30.00,29.94,10,8,4,20,11,23,0.00,5,Rain,201
2012-6-12,88,80,71,76,69,66,90,73,55,30.16,30.06,29.91,10,9,2,30,9,40,T,4,Rain,330
2012-6-13,89,81,73,73,70,66,87,67,47,30.02,29.97,29.91,10,10,10,14,6,17,0.00,0,,304
2012-6-14,90,81,72,75,71,63,93,73,52,30.03,29.97,29.92,10,10,5,29,5,36,0.51,2,Rain-Thunderstorm,307
2012-6-15,88,81,73,72,69,66,93,72,50,30.04,30.01,29.96,10,10,10,15,6,20,0.02,1,Thunderstorm,104
2012-6-16,87,81,75,72,67,63,82,62,42,30.10,30.04,30.00,10,10,10,21,10,30,0.00,1,,97
2012-6-17,87,80,72,74,71,67,93,77,61,30.05,29.99,29.92,10,9,1,18,8,24,0.92,4,Rain,107
2012-6-18,87,82,76,72,70,68,82,70,57,29.98,29.95,29.90,10,10,10,20,10,25,0.02,2,,136
2012-6-19,88,82,76,72,70,68,87,67,46,30.06,30.01,29.96,10,10,10,21,10,24,0.00,2,,128
2012-6-20,88,81,73,70,69,67,87,69,50,30.04,30.00,29.97,10,10,10,18,7,25,0.00,2,,114
2012-6-21,91,83,75,73,70,65,82,65,47,29.99,29.94,29.88,10,10,10,17,8,22,0.00,0,,64
2012-6-22,91,84,77,74,72,68,85,68,50,29.89,29.85,29.82,10,10,10,18,9,23,0.00,2,,80
2012-6-23,92,86,80,76,74,72,85,69,52,29.86,29.84,29.80,10,10,10,21,11,28,0.00,1,,87
2012-6-24,95,87,79,76,73,72,85,64,43,29.87,29.81,29.75,10,10,10,18,11,23,0.00,0,,42
2012-6-25,97,89,81,79,74,70,79,61,42,29.78,29.72,29.64,10,10,7,17,8,22,0.00,1,,349
2012-6-26,98,90,82,77,73,70,80,58,35,29.77,29.70,29.65,10,10,9,15,8,20,0.00,0,,339
2012-6-27,97,89,80,79,72,64,85,62,38,29.99,29.89,29.77,10,10,9,14,5,18,0.00,0,,77
2012-6-28,95,88,80,77,74,67,91,69,46,30.08,30.03,29.98,10,10,10,12,5,13,T,1,,199
2012-6-29,94,86,78,76,75,73,91,69,46,30.04,29.98,29.91,10,10,9,15,6,18,0.00,1,,267
2012-6-30,92,85,77,74,71,68,82,66,50,29.97,29.94,29.90,10,10,10,14,6,17,0.00,2,,251